SL-24 R/B, 40541

Orbit data source: Space-Track

SL-24 R/B, 40541 is space debris in LEO originally from a launch on Wed, 25 Mar 2015 UTC launched from the Orenburg, Russia (OREN). Debris objects in space refer to the collection of defunct objects orbiting the Earth. Examples of debris include non-operational satellites, rocket bodies, and fragments generated from explosions, collisions, or faulty payload assembly.

Loading next visibility...
SL-24 R/B details
Identifier
40541, 2015-014C
Orbit
LEO
Last TLE update13 hours ago
Origin
Flag of CISKosmotras (CIS)
ManufacturerYuzhnoe
MissionSpacecraft
Bus & Motor15A18-BR, Unknown motor
Mass~1,000 kg wet, ~1,000 kg dry
Launch date (UTC)
2015-03-25 (10 years ago)
Launch vehicleUnknown
Launch site
Orenburg, Russia (OREN)
Object type
Payload
Rocket body
Debris
Shape & HBRCyl, 3 m
Radar Cross Section10.603 m², Large (>1 m²)

Expand to show TLE details & history

TLE from 13 hours ago
0 SL-24 R/B
1 40541U 15014C   24347.89218876  .00001578  00000-0  39289-3 0  9999
2 40541  97.3834 271.5257 0613300 352.1840   7.0084 13.77028726487893
Epoch: 2024-12-12T21:24Z
Definitive object data (Epoch: 2024-12-12T21:24:45.108Z)
Latitude-0.00001°
Longitude-131.72825°
Altitude530.155 km
Speed7.825 km/s
True Right ascension18h 06m 06s
True Declination0° 00' 00"
Sunlit
Object was in daylight at TLE epoch
Visualization TLE readout
Latitude70.96998°
Longitude70.63638°
Altitude1,168.573 km
Speed7.185 km/s
Apparent Right ascension21h 34m 38s
Apparent Declination49° 27' 07"
Sunlit
Object is in full shadow
Visualization observer readout
Local Sidereal Time08:36:43
Azimuth350.645° N
Elevation0.276°
Doppler factor1
Orbital elements
Apogee altitude1,422.346 km
Perigee altitude520.828 km
Semi-major axis7,349.724 km
Eccentricity0.06133
Inclination97.3834°
RAAN271.5257°
Arg. of periapsis352.184°
True anomaly7.93623°
Mean anomaly7.0084°
Eccentric anomaly7.46493°
Mean motion3.44458 °/min
BSTAR0.00039289
Orbital period104.51 mins
Loading maneuver chart data...
Loading historical data...
Loading historical data...
Loading historical data...
Loading historical data...
Loading historical data...
Loading historical data...
Loading historical data...
Other satellites on launch #14 in the year 2015 (2015-03-25 UTC)

SL-24 R/B Visibility forecast

Observer location: undefined°, undefined

Span
Click to sort rows by Start time (UTC) header in descending order
Start Az.
Max El. time (UTC)
Max El. Az.
Max El.
End time (UTC)
End Az.
5 mins2024-12-13 10:11:50.663Z319.789° NNW2024-12-13 10:13:50.663Z303.902° NW12.228°2024-12-13 10:16:50.663Z281.404° WNW
7 mins2024-12-13 18:28:50.663Z121.525° SE2024-12-13 18:31:50.663Z56.928° ENE28.325°2024-12-13 18:35:50.663Z5.62° NNE
4 mins2024-12-13 20:13:50.663Z247.588° W2024-12-13 20:14:50.663Z265.235° W18.376°2024-12-13 20:17:50.663Z310.327° NW
14 mins2024-12-14 07:06:50.663Z28.909° NE2024-12-14 07:12:50.663Z91.201° ESE35.292°2024-12-14 07:20:50.663Z166.425° S
13 mins2024-12-14 08:50:50.663Z351.38° N2024-12-14 08:55:50.663Z298.341° NW33.767°2024-12-14 09:03:50.663Z224.573° SW
|